User: anonymous   Login
Location: Sungai Anya
(2.6167°N, 114.0500°E)
Time: 18:35:05
(UTC+00:00)
Language:

PAYLOAD B - Orbit

View from above orbital plane
View from above orbital plane
View from above satellite
View from above satellite

Ground track
Ground track

The orbit data is extracted from the following two-line orbital elements,

1 27431U 02024B   22021.06980429 -.00000047  00000-0 -39393-6 0  9996
2 27431  99.1412  39.4609 0016341  73.2601 287.0360 14.09742507 12941
Epoch (UTC): 21 January 2022 01:40:31
Eccentricity: 0.0016341
inclination: 99.1412°
perigee height: 848 km
apogee height: 872 km
right ascension of ascending node: 39.4609°
argument of perigee: 73.2601°
revolutions per day: 14.09742507
mean anomaly at epoch: 287.0360°
orbit number at epoch: 1294

The dashed part of the orbit path shows where the satellite is in the earth's shadow,  

DLR